sat.trackr.live / text

‹ back to catalog

INTELSAT 905 (IS-905)

NORAD 27438 · 2002-027A

PAYLOAD ACTIVE UNKNOWN

§ Identity

Operator
Country
ITSO
Launch date
2002-06-05
Launch site
FRGUI
Launch vehicle
Mass (kg)
RCS (m²)
15.89

Purposes: comms

External: N2YO · Heavens-Above · Gunter

§ Orbital elements

Epoch: 2026-09-04T04:38:38.163264Z

Period
1,436.11 min
Inclination
6.9455°
Eccentricity
0.0003223
Mean motion
1.00270578 rev/d
Perigee alt
35,773.3 km
Apogee alt
35,800.5 km
Semi-major
42,165.1 km
B*
0.0000e+0
RAAN
68.8117°
Arg perigee
125.1117°
Mean anomaly
81.8668°
Rev number
5,215

§ Raw data

INTELSAT 905 (IS-905)1 27438U 02027A   26247.19349726  .00000087  00000+0  00000+0 0  99902 27438   6.9455  68.8117 0003223 125.1117  81.8668  1.00270578 52154

JSON: /api/v1/satellites/27438 · /tle

For live sub-satellite position, see the globe view (requires WebGL).

§ Visibility from observer

Set your observer location to see the next 7 days of passes ≥ 10°. The values pass through the URL so the page stays shareable.

No JS? Fill the form by hand. The geolocation button needs JavaScript.